C/2006 S5 ( Hill )

Japanese version
Home page
Total 5,708 html files since Dec. 4, 1995
Updated on April 6, 2008

---------------------------------------------------------------------

* Profile

Discovery Date September 28, 2006
Magnitude 18.6 mag
Discoverer R. E. Hill (Catalina Sky Survey)

* Pictures

* Orbital Elements

Epoch 2007 Dec. 6.0 TT = JDT 2454440.5
T 2007 Dec.  9.74919 TT                                 MPC
q   2.6304239            (2000.0)            P               Q
z  +0.0102607      Peri.  182.10927     -0.23580579     -0.95639719
 +/-0.0000081      Node   281.56301     +0.89416481     -0.14407332
e   0.9730100      Incl.   10.13145     +0.38061126     -0.25406158
From 191 observations 2006 Sept. 14-2007 Aug. 13, mean residual 0".60.

* Finding Charts

* Magnitudes Graph

        m1 = 8.5 + 5 log d + 10.0 log r

---------------------------------------------------------------------

The orbital elements are published on M.P.E.C. 2007-Q05.
The charts are made with StellaNavigator Ver.2.0 for Windows (AstroArts / ASCII).
The magnitudes graphs are made with Comet for Windows.

---------------------------------------------------------------------

Copyright(C) 1995-2007 Seiichi Yoshida (comet@aerith.net). All rights reserved.